TimeEST,TemperatureF,Dew PointF,Humidity,Sea Level PressureIn,VisibilityMPH,Wind Direction,Wind SpeedMPH,Gust SpeedMPH,PrecipitationIn,Events,Conditions,WindDirDegrees,DateUTC
12:53 AM,46.9,39.0,74,30.26,10.0,SSW,3.5,-,N/A,,Clear,210,2012-12-01 05:53:00
1:53 AM,46.0,39.0,76,30.25,10.0,SSW,3.5,-,N/A,,Clear,210,2012-12-01 06:53:00
2:53 AM,46.9,39.0,74,30.26,10.0,SSW,4.6,-,N/A,,Clear,200,2012-12-01 07:53:00
3:53 AM,48.0,41.0,77,30.27,10.0,Calm,Calm,-,N/A,,Overcast,0,2012-12-01 08:53:00
4:53 AM,48.0,41.0,77,30.29,10.0,Calm,Calm,-,N/A,,Overcast,0,2012-12-01 09:53:00
5:53 AM,48.2,42.8,82,30.31,10.0,Calm,Calm,-,N/A,,Overcast,0,2012-12-01 10:53:00
6:53 AM,46.0,41.0,83,30.30,10.0,SSW,3.5,-,N/A,,Overcast,200,2012-12-01 11:53:00
7:53 AM,46.0,41.0,83,30.32,10.0,South,3.5,-,N/A,,Scattered Clouds,180,2012-12-01 12:53:00
8:53 AM,48.9,43.0,80,30.33,10.0,Calm,Calm,-,N/A,,Clear,0,2012-12-01 13:53:00
9:53 AM,52.0,44.1,74,30.34,10.0,Variable,3.5,-,N/A,,Clear,0,2012-12-01 14:53:00
10:53 AM,55.9,44.1,64,30.34,10.0,Variable,3.5,-,N/A,,Clear,0,2012-12-01 15:53:00
11:53 AM,59.0,46.0,62,30.31,10.0,Variable,4.6,-,N/A,,Clear,0,2012-12-01 16:53:00
12:53 PM,62.1,45.0,53,30.27,10.0,Variable,3.5,-,N/A,,Clear,0,2012-12-01 17:53:00
1:53 PM,63.0,43.0,48,30.25,10.0,Calm,Calm,-,N/A,,Clear,0,2012-12-01 18:53:00
2:53 PM,64.0,43.0,46,30.24,10.0,Calm,Calm,-,N/A,,Partly Cloudy,0,2012-12-01 19:53:00
3:53 PM,63.0,42.1,46,30.23,10.0,Variable,5.8,-,N/A,,Clear,0,2012-12-01 20:53:00
4:53 PM,61.0,42.1,50,30.23,10.0,Calm,Calm,-,N/A,,Clear,0,2012-12-01 21:53:00
6:53 PM,55.9,42.1,60,30.24,10.0,Calm,Calm,-,N/A,,Clear,0,2012-12-01 23:53:00
7:53 PM,55.9,42.1,60,30.25,10.0,South,5.8,-,N/A,,Clear,190,2012-12-02 00:53:00
8:53 PM,54.0,42.1,64,30.25,10.0,SSW,4.6,-,N/A,,Clear,200,2012-12-02 01:53:00
9:53 PM,54.0,43.0,66,30.24,10.0,Variable,4.6,-,N/A,,Clear,0,2012-12-02 02:53:00
10:53 PM,52.0,43.0,71,30.24,10.0,Calm,Calm,-,N/A,,Clear,0,2012-12-02 03:53:00
11:53 PM,53.1,43.0,69,30.24,10.0,SSW,3.5,-,N/A,,Clear,200,2012-12-02 04:53:00